When you browse on this site, cookies collect data to enhance your experience and personalize the content and advertising you see.
Visit our Privacy Policy to learn more. By continuing to use the site, you agree to this use of cookies and data.
  • In Österreich
  • Länderverzeichnis
  • Für 7 Tage
  • Wassertemperatur
  • Wetterkarte
  • News
  • Widgets
  • user-avatar
    Anmelden

    Stündliche Wetter Quebec

    Heute, 11 Dezember, Mittwoch

    Zeit Temperatur Niederschläge Wind Luftdruck Luftfeuchtigkeit
    00:00 -28°C° 0 mm 5 m/S 688 mmHg 94%
    01:00 -31°C° 0 mm 5 m/S 689 mmHg 95%
    02:00 -31°C° 0 mm 4 m/S 690 mmHg 95%
    03:00 -32°C° 0 mm 4 m/S 690 mmHg 95%
    04:00 -32°C° 0 mm 3 m/S 691 mmHg 95%
    05:00 -33°C° 0 mm 3 m/S 691 mmHg 95%
    06:00 -34°C° 0 mm 3 m/S 692 mmHg 96%
    07:00 -35°C° 0 mm 3 m/S 692 mmHg 96%
    08:00 -34°C° 0 mm 3 m/S 693 mmHg 94%
    09:00 -33°C° 0 mm 3 m/S 693 mmHg 92%
    10:00 -32°C° 0 mm 3 m/S 694 mmHg 90%
    11:00 -31°C° 0 mm 3 m/S 694 mmHg 89%
    12:00 -30°C° 0 mm 3 m/S 694 mmHg 89%
    13:00 -30°C° 0 mm 4 m/S 693 mmHg 88%
    14:00 -29°C° 0 mm 3 m/S 693 mmHg 91%
    15:00 -30°C° 0 mm 3 m/S 693 mmHg 93%
    16:00 -28°C° 0 mm 2 m/S 693 mmHg 96%
    17:00 -28°C° 0 mm 2 m/S 693 mmHg 96%
    18:00 -28°C° 0 mm 2 m/S 693 mmHg 95%
    19:00 -28°C° 0 mm 2 m/S 693 mmHg 95%
    20:00 -25°C° 0 mm 1 m/S 692 mmHg 96%
    21:00 -25°C° 0 mm 1 m/S 692 mmHg 97%
    22:00 -24°C° 0 mm 1 m/S 692 mmHg 97%
    23:00 -24°C° 0.1 mm 1 m/S 692 mmHg 98%

    Morgen, 12 Dezember, Donnerstag

    Zeit Temperatur Niederschläge Wind Luftdruck Luftfeuchtigkeit
    00:00 -24°C° 0.1 mm 1 m/S 692 mmHg 98%
    01:00 -24°C° 0.1 mm 1 m/S 692 mmHg 98%
    02:00 -27°C° 0 mm 2 m/S 693 mmHg 97%
    03:00 -30°C° 0 mm 3 m/S 693 mmHg 96%
    04:00 -32°C° 0 mm 4 m/S 694 mmHg 95%
    05:00 -32°C° 0 mm 4 m/S 695 mmHg 95%
    06:00 -33°C° 0 mm 4 m/S 696 mmHg 95%
    07:00 -34°C° 0 mm 4 m/S 696 mmHg 96%
    08:00 -34°C° 0 mm 4 m/S 697 mmHg 95%
    09:00 -34°C° 0 mm 4 m/S 698 mmHg 94%
    10:00 -34°C° 0 mm 4 m/S 699 mmHg 94%
    11:00 -33°C° 0 mm 4 m/S 699 mmHg 93%
    12:00 -32°C° 0 mm 4 m/S 699 mmHg 92%
    13:00 -32°C° 0 mm 4 m/S 700 mmHg 91%
    14:00 -33°C° 0 mm 4 m/S 700 mmHg 92%
    15:00 -33°C° 0 mm 3 m/S 699 mmHg 94%
    16:00 -34°C° 0 mm 3 m/S 699 mmHg 95%
    17:00 -33°C° 0 mm 3 m/S 700 mmHg 95%
    18:00 -32°C° 0 mm 3 m/S 700 mmHg 96%
    19:00 -33°C° 0 mm 4 m/S 701 mmHg 96%
    20:00 -33°C° 0 mm 3 m/S 700 mmHg 97%
    21:00 -34°C° 0 mm 3 m/S 700 mmHg 98%
    22:00 -34°C° 0 mm 2 m/S 700 mmHg 99%
    23:00 -34°C° 0 mm 2 m/S 700 mmHg 99%

    übermorgen, 13 Dezember, Freitag

    Zeit Temperatur Niederschläge Wind Luftdruck Luftfeuchtigkeit
    00:00 -34°C° 0 mm 2 m/S 700 mmHg 98%
    01:00 -34°C° 0 mm 2 m/S 700 mmHg 98%
    02:00 -34°C° 0 mm 2 m/S 699 mmHg 98%
    03:00 -34°C° 0 mm 2 m/S 699 mmHg 98%
    04:00 -34°C° 0 mm 2 m/S 699 mmHg 98%
    05:00 -34°C° 0 mm 2 m/S 699 mmHg 98%
    06:00 -32°C° 0 mm 2 m/S 699 mmHg 98%
    07:00 -32°C° 0 mm 2 m/S 699 mmHg 98%
    08:00 -31°C° 0 mm 2 m/S 699 mmHg 98%
    09:00 -29°C° 0 mm 2 m/S 699 mmHg 97%
    10:00 -27°C° 0 mm 2 m/S 699 mmHg 97%
    11:00 -26°C° 0 mm 2 m/S 699 mmHg 96%
    12:00 -24°C° 0 mm 2 m/S 698 mmHg 95%
    13:00 -21°C° 0 mm 2 m/S 698 mmHg 95%
    14:00 -23°C° 0 mm 2 m/S 698 mmHg 96%
    15:00 -21°C° 0 mm 1 m/S 698 mmHg 97%
    16:00 -22°C° 0 mm 1 m/S 697 mmHg 98%
    17:00 -21°C° 0 mm 1 m/S 698 mmHg 98%
    18:00 -21°C° 0 mm 1 m/S 698 mmHg 98%
    19:00 -20°C° 0 mm 1 m/S 698 mmHg 97%
    20:00 -21°C° 0 mm 2 m/S 698 mmHg 97%
    21:00 -20°C° 0 mm 2 m/S 698 mmHg 97%
    22:00 -19°C° 0 mm 2 m/S 697 mmHg 96%
    23:00 -19°C° 0 mm 2 m/S 697 mmHg 96%

    14 Dezember, Samstag

    Zeit Temperatur Niederschläge Wind Luftdruck Luftfeuchtigkeit
    00:00 -19°C° 0 mm 2 m/S 697 mmHg 96%
    01:00 -19°C° 0 mm 2 m/S 696 mmHg 96%
    02:00 -19°C° 0 mm 3 m/S 696 mmHg 96%
    03:00 -18°C° 0 mm 3 m/S 696 mmHg 95%
    04:00 -17°C° 0 mm 3 m/S 695 mmHg 95%
    05:00 -16°C° 0.1 mm 3 m/S 695 mmHg 94%
    06:00 -17°C° 0.1 mm 4 m/S 695 mmHg 94%
    07:00 -16°C° 0.1 mm 4 m/S 694 mmHg 93%
    08:00 -15°C° 0.2 mm 5 m/S 694 mmHg 93%
    09:00 -14°C° 0.2 mm 5 m/S 693 mmHg 92%
    10:00 -13°C° 0.2 mm 5 m/S 693 mmHg 92%
    11:00 -14°C° 0.1 mm 6 m/S 692 mmHg 92%
    12:00 -12°C° 0.1 mm 6 m/S 692 mmHg 91%
    13:00 -12°C° 0.1 mm 6 m/S 691 mmHg 91%
    14:00 -11°C° 0.1 mm 6 m/S 691 mmHg 92%
    15:00 -11°C° 0.1 mm 5 m/S 690 mmHg 92%
    16:00 -11°C° 0.1 mm 5 m/S 690 mmHg 93%
    17:00 -11°C° 0.1 mm 5 m/S 689 mmHg 93%
    18:00 -11°C° 0.1 mm 5 m/S 689 mmHg 93%
    19:00 -11°C° 0.1 mm 5 m/S 688 mmHg 93%
    20:00 -11°C° 0 mm 5 m/S 687 mmHg 93%
    21:00 -10°C° 0 mm 4 m/S 687 mmHg 93%
    22:00 -10°C° 0 mm 4 m/S 686 mmHg 93%
    23:00 -10°C° 0.3 mm 4 m/S 685 mmHg 94%

    15 Dezember, Sonntag

    Zeit Temperatur Niederschläge Wind Luftdruck Luftfeuchtigkeit
    00:00 -10°C° 0.3 mm 4 m/S 684 mmHg 94%
    01:00 -9°C° 0.3 mm 4 m/S 683 mmHg 94%
    02:00 -9°C° 0.5 mm 4 m/S 682 mmHg 94%
    03:00 -8°C° 0.5 mm 4 m/S 681 mmHg 95%
    04:00 -8°C° 0.5 mm 5 m/S 680 mmHg 95%
    05:00 -8°C° 0.6 mm 4 m/S 680 mmHg 95%
    06:00 -7°C° 0.6 mm 4 m/S 679 mmHg 95%
    07:00 -6°C° 0.6 mm 3 m/S 678 mmHg 95%
    08:00 -7°C° 0.5 mm 4 m/S 677 mmHg 95%
    09:00 -7°C° 0.5 mm 4 m/S 677 mmHg 95%
    10:00 -7°C° 0.5 mm 4 m/S 676 mmHg 95%
    11:00 -8°C° 0.7 mm 4 m/S 675 mmHg 95%
    12:00 -8°C° 0.7 mm 4 m/S 674 mmHg 95%
    13:00 -7°C° 0.7 mm 3 m/S 673 mmHg 95%
    14:00 -8°C° 0.7 mm 3 m/S 673 mmHg 95%
    15:00 -8°C° 0.7 mm 3 m/S 673 mmHg 95%
    16:00 -9°C° 0.7 mm 3 m/S 672 mmHg 95%
    17:00 -9°C° 0.5 mm 3 m/S 672 mmHg 95%
    18:00 -10°C° 0.5 mm 3 m/S 672 mmHg 95%
    19:00 -10°C° 0.5 mm 3 m/S 672 mmHg 95%
    20:00 -12°C° 0.4 mm 4 m/S 672 mmHg 94%
    21:00 -12°C° 0.4 mm 4 m/S 672 mmHg 94%
    22:00 -13°C° 0.4 mm 5 m/S 673 mmHg 93%
    23:00 -15°C° 0.4 mm 6 m/S 673 mmHg 93%

    16 Dezember, Montag

    Zeit Temperatur Niederschläge Wind Luftdruck Luftfeuchtigkeit
    00:00 -15°C° 0.4 mm 6 m/S 674 mmHg 93%
    01:00 -15°C° 0.4 mm 7 m/S 674 mmHg 92%
    02:00 -17°C° 0.5 mm 8 m/S 675 mmHg 92%
    03:00 -18°C° 0.5 mm 8 m/S 676 mmHg 92%
    04:00 -20°C° 0.5 mm 9 m/S 676 mmHg 92%
    05:00 -20°C° 0.5 mm 9 m/S 677 mmHg 92%
    06:00 -21°C° 0.5 mm 9 m/S 678 mmHg 92%
    07:00 -22°C° 0.5 mm 10 m/S 679 mmHg 92%
    08:00 -22°C° 0.4 mm 10 m/S 680 mmHg 92%
    09:00 -20°C° 0.4 mm 10 m/S 681 mmHg 92%
    10:00 -20°C° 0.4 mm 10 m/S 682 mmHg 92%
    11:00 -20°C° 0.4 mm 10 m/S 684 mmHg 91%
    12:00 -19°C° 0.4 mm 10 m/S 685 mmHg 91%
    13:00 -19°C° 0.4 mm 10 m/S 686 mmHg 91%
    14:00 -19°C° 0.3 mm 10 m/S 687 mmHg 91%
    15:00 -20°C° 0.3 mm 10 m/S 688 mmHg 90%
    16:00 -20°C° 0.3 mm 10 m/S 690 mmHg 90%
    17:00 -22°C° 0.2 mm 10 m/S 691 mmHg 90%
    18:00 -21°C° 0.2 mm 9 m/S 692 mmHg 90%
    19:00 -22°C° 0.2 mm 9 m/S 693 mmHg 90%
    20:00 -23°C° 0.1 mm 8 m/S 694 mmHg 91%
    21:00 -23°C° 0.1 mm 7 m/S 694 mmHg 92%
    22:00 -24°C° 0.1 mm 7 m/S 695 mmHg 93%
    23:00 -26°C° 0 mm 6 m/S 696 mmHg 94%
    Mehr zeigen